Location: Pine Mountain Observatory
(43.7910°N, 120.9377°W)
Time: 10:03:00
(UTC-07:00)

Vanguard 2 - Visible Passes

Search period start: 19 May 2019 00:00
Search period end: 29 May 2019 00:00
Orbit: 553 x 2939 km, 32.9° (Epoch: 19 May)

Date Brightness Start Highest point End Pass type
(mag) Time Alt. Az. Time Alt. Az. Time Alt. Az.
19 May 10.1 00:35:38 10° WSW 00:38:22 16° WSW 00:38:22 16° WSW visible
19 May 9.2 22:40:48 10° W 22:51:07 38° SSW 22:53:53 30° SSE visible
20 May 10.4 00:54:37 10° WSW 00:55:17 11° WSW 00:55:17 11° WSW visible
20 May 9.8 20:46:09 10° WSW 20:59:52 48° S 21:08:30 10° ESE visible
20 May 9.3 22:58:58 10° W 23:08:44 33° SSW 23:10:46 30° S visible
21 May 9.8 21:04:06 10° WSW 21:17:41 48° S 21:26:13 10° ESE visible
21 May 9.5 23:17:16 10° W 23:26:13 28° SSW 23:27:37 27° SSW visible
22 May 9.8 21:22:08 10° W 21:35:27 46° SSW 21:43:03 14° SE visible
22 May 9.8 23:35:45 10° W 23:43:37 23° SW 23:44:28 22° SSW visible
23 May 9.9 21:40:15 10° W 21:53:08 42° SSW 21:59:53 17° SE visible
23 May 10.2 23:54:38 10° WSW 00:00:54 17° SW 00:01:17 17° SW visible
24 May 9.9 21:58:27 10° W 22:10:44 37° SSW 22:16:42 19° SSE visible
25 May 10.5 00:14:29 10° WSW 00:18:04 12° SW 00:18:06 12° SW visible
25 May 9.9 22:16:47 10° W 22:28:12 32° SSW 22:33:31 20° SSE visible
26 May 10.1 22:35:18 10° W 22:45:34 26° SW 22:50:19 18° S visible
27 May 10.3 22:54:10 10° W 23:02:48 20° SW 23:07:09 15° SSW visible
28 May 10.4 20:57:41 10° W 21:12:03 40° SSW 21:22:00 10° SE visible
28 May 10.6 23:13:45 10° WSW 23:19:56 15° SW 23:23:58 12° SSW visible
